Location: Aiyekoto
(8.4333°N, 4.3667°E)
Time: 00:27:28
(UTC+00:00)

H-2A R/B - Pass Details

Date: 07 June 2020
Orbit: 577 x 656 km, 98.5° (Epoch: 13 July)

Event Time Altitude Azimuth Distance (km) Brightness Sun altitude
Exits shadow 03:14:18 41° 25° (NNE) 916 3.2 -29.3°
Drops below altitude 10° 03:17:24 10° 359° (N) 2,016 5.0 -28.6°
Sets 03:19:39 0° 355° (N) 2,934 5.9 -28.2°
